STARLINK-11259, 60721

Orbit data source: Space-Track

STARLINK-11259, 60721 is a payload satellite owned by SpaceX/Seattle (US) in LEO that was launched on Wed, 28 Aug 2024 UTC via an FALCON 9 launch vehicle from the Air Force Eastern Test Range (AFETR). Payload-class satellites include a variety of spacecraft equipped with specific instruments for various scientific and technological missions. These include communications satellites like Starlink; space stations such as the ISS; scientific satellites like the Hubble; Earth observation satellites from companies like Planet Labs, Umbra, and HawkEye 360; GPS; miniature CubeSats for education and research; and military/defense satellites.

Loading next visibility...
Identifier
60721, 2024-152B
Orbit
LEO
Country
Flag of USUS
Related business
Manufacturer
SpaceX/Seattle
Mission
Operational Commercial Communications
Bus & Motor
STARLINK V2MD, Unknown motor
Mass
960 kg wet, ~910 kg dry
Launch date (UTC)
2024-08-28 (2 years ago)
Launch vehicle
FALCON 9
Launch site
Air Force Eastern Test Range (AFETR)
Object type
Payload
Rocket body
Debris
Shape & HBR
Box + 2 Pan, 18.1 m
Radar Cross Section
36.964 m², Large (>1 m²)

Expand to show TLE details & history
Last TLE update: 1 day ago

TLE from 1 day ago
0 STARLINK-11259
1 60721U 24152B   26127.46993296 -.00000654  00000-0 -54103-6 0  9992
2 60721  53.1594 186.7533 0001023 106.0083 254.1047 15.69710528 98062
Epoch: 2026-05-07T11:16Z
TLE epoch observation values (Epoch: 2026-05-07T11:16:42.207Z)
Latitude
-0.00009°
Longitude
152.26176°
Altitude
360.829 km
Speed
7.694 km/s
True Right ascension
12h 27m 00s
True Declination
0° 00' 00"
Sunlit
Object was in full shadow at epoch
Visualization orbit readout
Latitude
Unknown
Longitude
Unknown
Altitude
Unknown
Speed
Unknown
Apparent Right ascension
Unknown
Apparent Declination
Unknown
Sunlit
N/A
Visualization observer readout
Local Sidereal Time
23:08:45
Azimuth
Unknown
Elevation
Unknown
Doppler factor
Unknown
Orbital elements
Apogee altitude
360.675 km
Perigee altitude
359.297 km
Semi-major axis
6,738.123 km
Eccentricity
0.0001
Inclination
53.1594°
RAAN
186.7533°
Arg. of periapsis
106.0083°
True anomaly
254.09343°
Mean anomaly
254.1047°
Eccentric anomaly
254.09906°
Mean motion
3.92405 °/min
Orbital period
91.74 mins
BSTAR
-5.4103e-7
Loading maneuver chart data...
Computing Atmospheric mass density...
Loading historical data...
Loading historical data...
Loading historical data...
Loading historical data...
Loading historical data...
Loading historical data...
Loading historical data...

Documentation

Showing up to 5 results
|